Date,TemperatureHighF,TemperatureAvgF,TemperatureLowF,DewpointHighF,DewpointAvgF,DewpointLowF,HumidityHigh,HumidityAvg,HumidityLow,PressureMaxIn,PressureMinIn,WindSpeedMaxMPH,WindSpeedAvgMPH,GustSpeedMaxMPH,PrecipitationSumIn
2013-8-1,83.5,75.2,71.0,76.0,73.2,71.0,100,94,75,29.97,29.89,4,0,0,0.04
2013-8-2,85.4,75.0,67.0,74.0,70.2,67.0,100,87,59,30.01,29.90,5,0,0,0.01
2013-8-3,84.5,74.8,65.4,76.0,71.2,65.0,100,89,68,30.04,29.97,9,1,0,0.00
2013-8-4,86.2,78.0,72.2,76.0,73.3,70.0,100,86,63,30.01,29.93,12,3,0,0.00
2013-8-5,84.0,75.4,67.9,77.0,71.5,67.0,97,88,69,30.02,29.94,5,1,0,0.00
2013-8-6,86.4,76.7,70.5,78.0,73.0,70.0,100,89,67,29.99,29.92,4,0,0,0.00
2013-8-7,81.1,74.8,72.1,78.0,74.3,71.0,100,98,87,30.02,29.94,2,0,0,0.18
2013-8-8,80.6,75.1,72.9,78.0,74.9,73.0,100,99,92,30.03,29.97,4,0,0,0.03
2013-8-9,86.6,78.2,72.1,79.0,75.4,72.0,100,92,71,30.06,29.98,4,0,0,0.00
2013-8-10,88.5,78.1,71.5,79.0,75.0,72.0,100,91,69,30.09,30.03,9,1,0,0.03
2013-8-11,87.7,78.3,70.6,78.0,74.4,71.0,100,88,66,30.14,30.02,5,0,0,0.01
2013-8-12,85.0,75.1,71.1,80.0,74.0,71.0,100,96,76,30.09,29.97,5,0,0,0.72
2013-8-13,82.9,75.3,69.7,77.0,73.4,70.0,100,94,76,30.00,29.86,9,1,0,0.01
2013-8-14,79.1,74.3,70.9,74.0,72.3,68.0,100,93,81,29.99,29.86,6,1,0,0.00
2013-8-15,73.0,69.6,67.5,68.0,65.0,62.0,95,85,71,30.06,29.97,8,2,0,0.00
2013-8-16,67.4,65.6,62.9,65.0,63.0,61.0,99,91,84,30.09,30.01,10,2,0,0.00
2013-8-17,65.9,64.2,62.2,65.0,63.1,61.0,100,96,86,30.13,30.07,11,2,0,0.05
2013-8-18,74.0,69.1,65.3,73.0,68.8,65.0,100,99,94,30.18,30.09,7,1,0,0.29
2013-8-19,78.2,72.0,68.6,76.0,71.4,69.0,100,98,89,30.13,30.02,7,1,0,0.84
2013-8-20,78.4,73.5,70.3,75.0,72.6,70.0,100,97,89,30.15,30.06,5,1,0,0.00
2013-8-21,79.6,74.0,69.4,76.0,72.8,69.0,100,96,83,30.21,30.08,6,0,0,0.01
2013-8-22,85.2,75.0,69.6,77.0,72.9,70.0,100,94,71,30.15,30.02,6,0,0,0.33
2013-8-23,86.0,75.6,67.3,77.0,72.5,67.0,100,91,67,30.07,29.95,7,1,0,0.00
2013-8-24,81.1,74.0,69.0,74.0,70.8,69.0,100,90,74,30.22,30.00,9,2,0,0.24
2013-8-25,79.1,71.3,64.3,69.0,65.9,63.0,96,84,63,30.34,30.22,9,1,0,0.00
2013-8-26,79.7,68.4,58.8,69.0,64.2,59.0,100,87,62,30.30,30.14,4,0,0,0.00
2013-8-27,83.6,71.3,60.8,73.0,67.4,61.0,100,88,63,30.16,30.02,6,1,0,0.00
2013-8-28,85.3,75.6,67.7,76.0,71.7,68.0,100,89,68,30.05,29.95,5,1,0,0.00
2013-8-29,88.3,78.5,70.3,78.0,74.0,70.0,100,87,66,29.99,29.90,16,2,0,0.00
2013-8-30,83.2,76.9,72.9,78.0,75.3,73.0,100,95,84,30.00,29.89,5,0,0,0.00
2013-8-31,87.3,76.5,70.7,79.0,74.3,70.0,100,94,72,29.95,29.84,3,0,0,0.39